TES

Satellite information

Favourite Embed

Satellite Type and Status

PAYLOADIN ORBIT

Key statistics

Satellite TES at a glance.

Uptime

8659

Days in orbit

Revolutions

≈ 15.6

Per day

Orbit

SSO

Sun Synchronous Orbit

Inclination

97.9

Latest

Satellite identification and parameters

Extended collection of information and parameters for TES.

Object identification

Identified? True

Debris? False

Object name: TES

International designator: 2001-049A

Object number (NORAD): 26957

Object ID (CCSDS): 26957

Country: INDIA (IND)

Current information (Y/N): Y

RCS size: LARGE

Orbital parameters

Period: 92.386 minutes

Inclination: 97.8502 deg

SMA: 6769.615 km

Apoapsis: 399.624 km

Periapsis: 383.336 km

RAAN: 50.4814 deg

Eccentricy: 0.001203

Argument of periapsis: 309.928 deg

Mean anomaly: 50.0917 deg

Mean motion: 15.58679366 rev/day

Mean motion (dot): 0.00033679 rev/day2

B* drag term: 0.00043726 1/REarth

Two-line elements (TLE)

Creation date: July 6, 2025, 6:05 p.m.

Reference frame: TEME

Reference center: EARTH

Epoch: July 6, 2025, 2:55 p.m. UTC

TLE line 0: 0 TES

TLE line 1: 1 26957U 01049A 25187.62218461 .00033679 00000-0 43726-3 0 9999

TLE line 2: 2 26957 97.8502 50.4814 0012030 309.9280 50.0917 15.58679366304523

Live tracking on map

Real-time ground track for satellite TES.

In-orbit conjunctions

There are no conjunctions computed for TES, at the moment. Check back to stay up to date, as we update our databases every day.

Go to all conjunctions

Associated space launch

Technology Experiment Satellite (TES) is Indian remote sensing and photo-reconnaissance satellite. The 1108 kg satellite carries a one-meter resolution panchromatic camera is an experimental satellite to demonstrate and validate, in orbit, technologies that could be used in the future satellites of Indian Space Research Organisation (ISRO). It was successfully placed in 572 km Sun-synchronous orbit on 22 October 2001 using the PSLV-C3. The PSLV-C3 also injected two more satellites: PROBA, a Belgian satellite and BIRD, a German satellite.

TES was lifted into orbit during the mission ‘PSLV | TES’, on board a PSLV space rocket.

The launch took place on Oct. 22, 2001, 4:53 a.m. from Satish Dhawan Space Centre First Launch Pad.

For more information about the launch, click the button.

Launch to space PSLV | TES
PSLV | TES

Agency: N/A

Status: Launch Successful

Launch date: Oct. 22, 2001, 4:53 a.m. UTC

Rocket: PSLV

Launch pad: Satish Dhawan Space Centre First Launch Pad

Location: Satish Dhawan Space Centre, India

...

Latest news about this satellite

News about space launch
Proba-1’s T-plus 23 years in orbit

Proba-1’s T-plus 23 years in orbit


Newsletter sign-up

Weekly statistics, charts and insights to help you stay on top of the space industry.